When you browse on this site, cookies collect data to enhance your experience and personalize the content and advertising you see.
Visit our Privacy Policy to learn more. By continuing to use the site, you agree to this use of cookies and data.

Hourly Weather Lewis

Today, 4 July, Saturday

Time Temperature Precipitation Wind Pressure Humidity
00:00 +9°C° 0 mm 6 mps 741 mmHg 84%
01:00 +9°C° 0 mm 7 mps 741 mmHg 85%
02:00 +9°C° 0 mm 7 mps 741 mmHg 86%
03:00 +9°C° 0 mm 7 mps 741 mmHg 87%
04:00 +9°C° 0.2 mm 7 mps 741 mmHg 88%
05:00 +9°C° 0.2 mm 6 mps 741 mmHg 88%
06:00 +9°C° 0.2 mm 6 mps 741 mmHg 89%
07:00 +9°C° 0.1 mm 6 mps 741 mmHg 89%
08:00 +9°C° 0.1 mm 6 mps 741 mmHg 88%
09:00 +9°C° 0.1 mm 6 mps 741 mmHg 88%
10:00 +10°C° 0.2 mm 6 mps 741 mmHg 86%
11:00 +10°C° 0.2 mm 6 mps 741 mmHg 84%
12:00 +11°C° 0.2 mm 6 mps 742 mmHg 82%
13:00 +11°C° 0.2 mm 6 mps 742 mmHg 80%
14:00 +11°C° 0.2 mm 6 mps 742 mmHg 79%
15:00 +11°C° 0.2 mm 6 mps 742 mmHg 77%
16:00 +12°C° 0.1 mm 5 mps 742 mmHg 76%
17:00 +12°C° 0.1 mm 5 mps 741 mmHg 76%
18:00 +12°C° 0.1 mm 4 mps 741 mmHg 75%
19:00 +12°C° 0.1 mm 4 mps 740 mmHg 81%
20:00 +11°C° 0.1 mm 3 mps 740 mmHg 86%
21:00 +10°C° 0.1 mm 3 mps 739 mmHg 91%
22:00 +10°C° 0.7 mm 3 mps 738 mmHg 93%
23:00 +10°C° 0.7 mm 3 mps 736 mmHg 94%

Tomorrow, 5 July, Sunday

Time Temperature Precipitation Wind Pressure Humidity
00:00 +9°C° 0.7 mm 3 mps 735 mmHg 95%
01:00 +8°C° 3.1 mm 5 mps 734 mmHg 95%
02:00 +8°C° 3.1 mm 6 mps 732 mmHg 95%
03:00 +7°C° 3.1 mm 8 mps 731 mmHg 95%
04:00 +7°C° 3.4 mm 8 mps 732 mmHg 94%
05:00 +7°C° 3.4 mm 9 mps 732 mmHg 94%
06:00 +7°C° 3.4 mm 9 mps 732 mmHg 93%
07:00 +7°C° 0.6 mm 8 mps 733 mmHg 91%
08:00 +8°C° 0.6 mm 7 mps 734 mmHg 89%
09:00 +9°C° 0.6 mm 6 mps 735 mmHg 87%
10:00 +9°C° 0.3 mm 6 mps 736 mmHg 85%
11:00 +10°C° 0.3 mm 6 mps 736 mmHg 84%
12:00 +11°C° 0.3 mm 6 mps 737 mmHg 82%
13:00 +11°C° 0.3 mm 7 mps 737 mmHg 80%
14:00 +11°C° 0.3 mm 7 mps 737 mmHg 78%
15:00 +11°C° 0.3 mm 7 mps 737 mmHg 76%
16:00 +11°C° 0.2 mm 7 mps 738 mmHg 78%
17:00 +10°C° 0.2 mm 7 mps 738 mmHg 80%
18:00 +10°C° 0.2 mm 8 mps 738 mmHg 82%
19:00 +10°C° 0.2 mm 6 mps 739 mmHg 86%
20:00 +9°C° 0.2 mm 5 mps 740 mmHg 90%
21:00 +10°C° 0.2 mm 4 mps 740 mmHg 94%
22:00 +9°C° 0.1 mm 6 mps 741 mmHg 92%
23:00 +9°C° 0.1 mm 7 mps 742 mmHg 91%

Day after tomorrow, 6 July, Monday

Time Temperature Precipitation Wind Pressure Humidity
00:00 +9°C° 0.1 mm 8 mps 743 mmHg 90%
01:00 +7°C° 0.1 mm 8 mps 744 mmHg 88%
02:00 +7°C° 0.1 mm 8 mps 746 mmHg 87%
03:00 +7°C° 0.1 mm 8 mps 747 mmHg 85%
04:00 +7°C° 0.1 mm 8 mps 748 mmHg 84%
05:00 +7°C° 0.1 mm 8 mps 749 mmHg 83%
06:00 +7°C° 0.1 mm 8 mps 750 mmHg 83%
07:00 +8°C° 0 mm 7 mps 751 mmHg 79%
08:00 +9°C° 0 mm 6 mps 751 mmHg 76%
09:00 +9°C° 0 mm 6 mps 752 mmHg 73%
10:00 +10°C° 0 mm 6 mps 753 mmHg 70%
11:00 +10°C° 0 mm 7 mps 753 mmHg 67%
12:00 +11°C° 0 mm 7 mps 753 mmHg 64%
13:00 +11°C° 0 mm 7 mps 754 mmHg 65%
14:00 +11°C° 0 mm 7 mps 754 mmHg 66%
15:00 +11°C° 0 mm 8 mps 754 mmHg 67%
16:00 +11°C° 0.1 mm 8 mps 754 mmHg 72%
17:00 +11°C° 0.1 mm 8 mps 754 mmHg 78%
18:00 +10°C° 0.1 mm 8 mps 754 mmHg 83%
19:00 +10°C° 0.2 mm 8 mps 754 mmHg 84%
20:00 +9°C° 0.2 mm 8 mps 754 mmHg 85%
21:00 +9°C° 0.2 mm 8 mps 754 mmHg 86%
22:00 +9°C° 0.1 mm 8 mps 754 mmHg 86%
23:00 +8°C° 0.1 mm 7 mps 754 mmHg 86%

7 July, Tuesday

Time Temperature Precipitation Wind Pressure Humidity
00:00 +8°C° 0.1 mm 7 mps 754 mmHg 86%
01:00 +8°C° 0.1 mm 7 mps 754 mmHg 86%
02:00 +8°C° 0.1 mm 6 mps 754 mmHg 87%
03:00 +8°C° 0.1 mm 6 mps 754 mmHg 87%
04:00 +9°C° 0.1 mm 5 mps 754 mmHg 87%
05:00 +9°C° 0.1 mm 5 mps 754 mmHg 87%
06:00 +10°C° 0.1 mm 4 mps 754 mmHg 86%
07:00 +10°C° 0.1 mm 3 mps 754 mmHg 84%
08:00 +11°C° 0.1 mm 3 mps 754 mmHg 82%
09:00 +12°C° 0.1 mm 2 mps 754 mmHg 80%
10:00 +12°C° 0.1 mm 2 mps 754 mmHg 78%
11:00 +13°C° 0.1 mm 2 mps 754 mmHg 76%
12:00 +13°C° 0.1 mm 2 mps 754 mmHg 73%
13:00 +13°C° 0.1 mm 2 mps 754 mmHg 71%
14:00 +13°C° 0.1 mm 2 mps 754 mmHg 68%
15:00 +14°C° 0.1 mm 2 mps 754 mmHg 66%
16:00 +13°C° 0 mm 2 mps 754 mmHg 67%
17:00 +13°C° 0 mm 2 mps 754 mmHg 69%
18:00 +13°C° 0 mm 1 mps 753 mmHg 70%
19:00 +12°C° 0 mm 2 mps 753 mmHg 74%
20:00 +10°C° 0 mm 2 mps 752 mmHg 78%
21:00 +10°C° 0 mm 2 mps 752 mmHg 82%
22:00 +9°C° 0.1 mm 3 mps 751 mmHg 84%
23:00 +9°C° 0.1 mm 3 mps 751 mmHg 86%

8 July, Wednesday

Time Temperature Precipitation Wind Pressure Humidity
00:00 +8°C° 0.1 mm 4 mps 750 mmHg 88%
01:00 +8°C° 0.6 mm 5 mps 749 mmHg 90%
02:00 +8°C° 0.6 mm 5 mps 748 mmHg 92%
03:00 +8°C° 0.6 mm 6 mps 748 mmHg 94%
04:00 +9°C° 1.1 mm 6 mps 747 mmHg 95%
05:00 +9°C° 1.1 mm 6 mps 746 mmHg 95%
06:00 +9°C° 1.1 mm 6 mps 745 mmHg 96%
07:00 +9°C° 1 mm 6 mps 745 mmHg 96%
08:00 +9°C° 1 mm 5 mps 745 mmHg 96%
09:00 +10°C° 1 mm 4 mps 745 mmHg 97%
10:00 +10°C° 0.4 mm 5 mps 745 mmHg 94%
11:00 +11°C° 0.4 mm 6 mps 745 mmHg 92%
12:00 +11°C° 0.4 mm 7 mps 745 mmHg 89%
13:00 +11°C° 0.2 mm 8 mps 746 mmHg 88%
14:00 +10°C° 0.2 mm 9 mps 747 mmHg 88%
15:00 +8°C° 0.2 mm 10 mps 747 mmHg 87%
16:00 +9°C° 0 mm 8 mps 748 mmHg 84%
17:00 +10°C° 0 mm 7 mps 749 mmHg 80%
18:00 +10°C° 0 mm 5 mps 750 mmHg 77%
19:00 +10°C° 0 mm 4 mps 751 mmHg 81%
20:00 +9°C° 0 mm 3 mps 751 mmHg 85%
21:00 +8°C° 0 mm 2 mps 752 mmHg 89%
22:00 +8°C° 0 mm 2 mps 752 mmHg 89%
23:00 +8°C° 0 mm 2 mps 752 mmHg 89%

9 July, Thursday

Time Temperature Precipitation Wind Pressure Humidity
00:00 +7°C° 0 mm 2 mps 752 mmHg 89%
01:00 +7°C° 0 mm 3 mps 752 mmHg 90%
02:00 +7°C° 0 mm 3 mps 752 mmHg 91%
03:00 +7°C° 0 mm 3 mps 752 mmHg 92%
04:00 +7°C° 0.1 mm 4 mps 752 mmHg 89%
05:00 +8°C° 0.1 mm 4 mps 752 mmHg 86%
06:00 +10°C° 0.1 mm 4 mps 752 mmHg 83%
07:00 +10°C° 0.1 mm 4 mps 752 mmHg 79%
08:00 +11°C° 0.1 mm 4 mps 752 mmHg 75%
09:00 +12°C° 0.1 mm 4 mps 752 mmHg 71%
10:00 +12°C° 0.1 mm 4 mps 752 mmHg 68%
11:00 +13°C° 0.1 mm 3 mps 752 mmHg 65%
12:00 +13°C° 0.1 mm 3 mps 752 mmHg 62%
13:00 +13°C° 0 mm 3 mps 752 mmHg 62%
14:00 +13°C° 0 mm 4 mps 752 mmHg 62%
15:00 +13°C° 0 mm 4 mps 752 mmHg 62%
16:00 +12°C° 0.1 mm 4 mps 751 mmHg 64%
17:00 +12°C° 0.1 mm 4 mps 751 mmHg 66%
18:00 +12°C° 0.1 mm 4 mps 751 mmHg 68%
19:00 +11°C° 0.1 mm 3 mps 751 mmHg 73%
20:00 +10°C° 0.1 mm 3 mps 751 mmHg 77%
21:00 +9°C° 0.1 mm 3 mps 751 mmHg 82%
22:00 +9°C° 0 mm 3 mps 751 mmHg 83%
23:00 +8°C° 0 mm 3 mps 750 mmHg 84%
Show more